Location: Luxembourg
(49.6117°N, 6.1300°E)
Time: 12:30:53
(UTC+01:00)

N. Korean satellite - Visible Passes

Search period start: 16 November 2018 00:00
Search period end: 26 November 2018 00:00
Orbit: 457 x 511 km, 97.2° (Epoch: 15 November)

Date Brightness Start Highest point End Pass type
(mag) Time Alt. Az. Time Alt. Az. Time Alt. Az.
16 Nov 9.8 06:04:13 10° NE 06:06:27 16° E 06:08:40 10° SE visible
16 Nov 7.3 18:16:21 10° S 18:19:55 55° W 18:23:27 10° NNW visible
17 Nov 6.4 17:51:49 10° SSE 17:55:24 75° ENE 17:58:58 10° N visible
18 Nov 7.4 06:47:45 10° NNE 06:51:08 51° E 06:54:30 10° S visible
18 Nov 7.0 17:27:36 10° SE 17:30:58 38° ENE 17:34:18 10° N visible
18 Nov 9.6 19:02:05 10° SW 19:04:35 18° W 19:07:04 10° NW visible
19 Nov 8.9 06:23:33 10° NE 06:26:32 26° E 06:29:29 10° SSE visible
19 Nov 8.5 18:36:40 10° SSW 18:39:55 32° W 18:43:09 10° NNW visible
20 Nov 9.8 05:59:50 10° NE 06:01:49 15° E 06:03:48 10° SE visible
20 Nov 7.1 18:11:48 10° S 18:15:20 62° W 18:18:52 10° NNW visible
21 Nov 6.4 07:07:36 10° NNE 07:11:04 87° WNW 07:14:30 10° SSW visible
21 Nov 6.4 17:47:17 10° SSE 17:50:50 66° ENE 17:54:20 10° N visible
21 Nov 10.2 19:23:53 10° WSW 19:24:41 11° W 19:25:30 10° WNW visible
22 Nov 7.7 06:43:10 10° NNE 06:46:30 45° E 06:49:49 10° S visible
22 Nov 7.1 17:23:09 10° SE 17:26:23 34° ENE 17:29:37 10° N visible
22 Nov 9.4 18:57:19 10° SW 18:59:57 19° W 19:02:34 10° NW visible
23 Nov 9.1 06:19:01 10° NE 06:21:52 24° E 06:24:43 10° SSE visible
23 Nov 8.3 18:32:00 10° SSW 18:35:17 35° W 18:38:33 10° NNW visible
24 Nov 9.9 05:55:27 10° ENE 05:57:09 13° E 05:58:50 10° ESE visible
24 Nov 6.8 18:07:11 10° S 18:10:42 70° WSW 18:14:12 10° NNW visible
25 Nov 6.5 07:02:57 10° NNE 07:06:25 82° ESE 07:09:53 10° SSW visible
25 Nov 6.5 17:42:43 10° SSE 17:46:12 58° ENE 17:49:39 10° N visible
25 Nov 10.1 19:18:42 10° WSW 19:20:01 12° W 19:21:20 10° WNW visible
